sat.trackr.live / text

‹ back to catalog

STARLINK-1300

NORAD 45374 · 2020-019Q

PAYLOAD ACTIVE UNKNOWN

§ Identity

Operator
Country
US
Launch date
2020-03-18
Launch site
AFETR
Launch vehicle
Mass (kg)
RCS (m²)

Purposes: comms

External: N2YO · Heavens-Above · Gunter

§ Orbital elements

Epoch: 2026-09-19T19:47:29.265792Z

Period
93.22 min
Inclination
53.1540°
Eccentricity
0.0003157
Mean motion
15.44764270 rev/d
Perigee alt
429.9 km
Apogee alt
434.2 km
Semi-major
6,810.2 km
B*
8.7933e-4
RAAN
335.1698°
Arg perigee
34.2785°
Mean anomaly
325.8425°
Rev number
35,959

§ Raw data

STARLINK-13001 45374U 20019Q   26262.82464428  .00041588  00000+0  87933-3 0  99992 45374  53.1540 335.1698 0003157  34.2785 325.8425 15.44764270359593

JSON: /api/v1/satellites/45374 · /tle

For live sub-satellite position, see the globe view (requires WebGL).

§ Visibility from observer

Set your observer location to see the next 7 days of passes ≥ 10°. The values pass through the URL so the page stays shareable.

No JS? Fill the form by hand. The geolocation button needs JavaScript.